• In Hungary
  • List of Countries
  • For 7 days
  • Water Temperature
  • Satellite Maps
  • Weather Map
  • News
  • Weather Widgets
  • user-avatar
    Login

    Hourly Weather Eleykino

    Today, 22 September, Saturday

    Time Temperature Precipitation Wind Pressure Humidity
    00:00 +13°C° 0 mm 2 mps 746 mmHg 95%
    01:00 +13°C° 0 mm 2 mps 746 mmHg 95%
    02:00 +13°C° 0 mm 2 mps 746 mmHg 96%
    03:00 +13°C° 0 mm 2 mps 746 mmHg 96%
    04:00 +13°C° 0 mm 2 mps 746 mmHg 96%
    05:00 +13°C° 0 mm 2 mps 746 mmHg 97%
    06:00 +13°C° 0 mm 2 mps 746 mmHg 97%
    07:00 +14°C° 0 mm 2 mps 746 mmHg 93%
    08:00 +16°C° 0 mm 2 mps 746 mmHg 88%
    09:00 +18°C° 0 mm 3 mps 747 mmHg 84%
    10:00 +19°C° 0.2 mm 3 mps 747 mmHg 79%
    11:00 +21°C° 0.2 mm 3 mps 746 mmHg 74%
    12:00 +22°C° 0.2 mm 4 mps 746 mmHg 69%
    13:00 +22°C° 0.4 mm 4 mps 746 mmHg 67%
    14:00 +24°C° 0.4 mm 3 mps 746 mmHg 66%
    15:00 +24°C° 0.4 mm 3 mps 746 mmHg 65%
    16:00 +21°C° 0.1 mm 3 mps 746 mmHg 70%
    17:00 +20°C° 0.1 mm 2 mps 746 mmHg 76%
    18:00 +18°C° 0.1 mm 2 mps 746 mmHg 82%
    19:00 +17°C° 0 mm 2 mps 746 mmHg 84%
    20:00 +16°C° 0 mm 2 mps 746 mmHg 87%
    21:00 +16°C° 0 mm 2 mps 746 mmHg 89%
    22:00 +15°C° 0 mm 2 mps 746 mmHg 90%
    23:00 +15°C° 0 mm 2 mps 746 mmHg 91%

    Tomorrow, 23 September, Sunday

    Time Temperature Precipitation Wind Pressure Humidity
    00:00 +15°C° 0 mm 2 mps 746 mmHg 93%
    01:00 +14°C° 0 mm 2 mps 746 mmHg 93%
    02:00 +14°C° 0 mm 2 mps 746 mmHg 93%
    03:00 +14°C° 0 mm 2 mps 746 mmHg 94%
    04:00 +14°C° 0 mm 2 mps 745 mmHg 94%
    05:00 +13°C° 0 mm 2 mps 745 mmHg 94%
    06:00 +13°C° 0 mm 2 mps 745 mmHg 94%
    07:00 +14°C° 0 mm 3 mps 745 mmHg 88%
    08:00 +17°C° 0 mm 3 mps 745 mmHg 82%
    09:00 +18°C° 0 mm 4 mps 745 mmHg 76%
    10:00 +20°C° 0 mm 4 mps 744 mmHg 70%
    11:00 +21°C° 0 mm 5 mps 744 mmHg 65%
    12:00 +22°C° 0 mm 5 mps 744 mmHg 59%
    13:00 +22°C° 0 mm 5 mps 744 mmHg 59%
    14:00 +22°C° 0 mm 6 mps 743 mmHg 60%
    15:00 +22°C° 0 mm 6 mps 743 mmHg 60%
    16:00 +21°C° 0 mm 5 mps 742 mmHg 64%
    17:00 +20°C° 0 mm 5 mps 742 mmHg 69%
    18:00 +17°C° 0 mm 5 mps 742 mmHg 73%
    19:00 +17°C° 0 mm 5 mps 741 mmHg 74%
    20:00 +17°C° 0 mm 5 mps 741 mmHg 75%
    21:00 +16°C° 0 mm 5 mps 741 mmHg 75%
    22:00 +16°C° 0 mm 5 mps 740 mmHg 75%
    23:00 +16°C° 0 mm 5 mps 740 mmHg 76%

    Day after tomorrow, 24 September, Monday

    Time Temperature Precipitation Wind Pressure Humidity
    00:00 +15°C° 0 mm 5 mps 739 mmHg 76%
    01:00 +15°C° 0 mm 5 mps 739 mmHg 75%
    02:00 +14°C° 0 mm 5 mps 739 mmHg 74%
    03:00 +14°C° 0 mm 5 mps 739 mmHg 73%
    04:00 +14°C° 0 mm 5 mps 738 mmHg 68%
    05:00 +14°C° 0 mm 5 mps 738 mmHg 64%
    06:00 +14°C° 0 mm 5 mps 738 mmHg 59%
    07:00 +14°C° 0 mm 5 mps 739 mmHg 60%
    08:00 +13°C° 0 mm 5 mps 739 mmHg 61%
    09:00 +13°C° 0 mm 5 mps 739 mmHg 62%
    10:00 +12°C° 0.1 mm 5 mps 740 mmHg 67%
    11:00 +11°C° 0.1 mm 4 mps 740 mmHg 72%
    12:00 +10°C° 0.1 mm 4 mps 740 mmHg 78%
    13:00 +10°C° 0.2 mm 4 mps 741 mmHg 77%
    14:00 +10°C° 0.2 mm 3 mps 741 mmHg 76%
    15:00 +10°C° 0.2 mm 2 mps 741 mmHg 74%
    16:00 +10°C° 0 mm 2 mps 742 mmHg 78%
    17:00 +10°C° 0 mm 1 mps 742 mmHg 81%
    18:00 +9°C° 0 mm 1 mps 742 mmHg 84%
    19:00 +9°C° 0 mm 1 mps 742 mmHg 84%
    20:00 +9°C° 0 mm 1 mps 742 mmHg 85%
    21:00 +8°C° 0 mm 1 mps 742 mmHg 86%
    22:00 +8°C° 0 mm 1 mps 742 mmHg 86%
    23:00 +8°C° 0 mm 1 mps 741 mmHg 86%

    25 September, Tuesday

    Time Temperature Precipitation Wind Pressure Humidity
    00:00 +7°C° 0 mm 2 mps 741 mmHg 87%
    01:00 +6°C° 0 mm 2 mps 740 mmHg 86%
    02:00 +6°C° 0 mm 2 mps 740 mmHg 85%
    03:00 +6°C° 0 mm 2 mps 740 mmHg 84%
    04:00 +6°C° 0 mm 2 mps 739 mmHg 84%
    05:00 +6°C° 0 mm 2 mps 738 mmHg 84%
    06:00 +6°C° 0 mm 2 mps 738 mmHg 84%
    07:00 +5°C° 0.1 mm 3 mps 737 mmHg 83%
    08:00 +7°C° 0.1 mm 3 mps 737 mmHg 83%
    09:00 +8°C° 0.1 mm 3 mps 736 mmHg 83%
    10:00 +7°C° 0.5 mm 4 mps 736 mmHg 83%
    11:00 +7°C° 0.5 mm 5 mps 735 mmHg 84%
    12:00 +8°C° 0.5 mm 7 mps 735 mmHg 84%
    13:00 +8°C° 0.2 mm 7 mps 734 mmHg 85%
    14:00 +8°C° 0.2 mm 7 mps 734 mmHg 86%
    15:00 +8°C° 0.2 mm 7 mps 734 mmHg 87%
    16:00 +8°C° 0.2 mm 7 mps 734 mmHg 87%
    17:00 +9°C° 0.2 mm 6 mps 733 mmHg 86%
    18:00 +9°C° 0.2 mm 6 mps 733 mmHg 86%
    19:00 +8°C° 0.1 mm 6 mps 733 mmHg 84%
    20:00 +8°C° 0.1 mm 6 mps 732 mmHg 82%
    21:00 +8°C° 0.1 mm 6 mps 732 mmHg 81%
    22:00 +7°C° 0 mm 6 mps 732 mmHg 81%
    23:00 +7°C° 0 mm 6 mps 732 mmHg 82%

    26 September, Wednesday

    Time Temperature Precipitation Wind Pressure Humidity
    00:00 +5°C° 0 mm 6 mps 731 mmHg 83%
    01:00 +5°C° 0 mm 6 mps 731 mmHg 82%
    02:00 +5°C° 0 mm 7 mps 731 mmHg 81%
    03:00 +4°C° 0 mm 7 mps 731 mmHg 80%
    04:00 +4°C° 0.1 mm 7 mps 732 mmHg 80%
    05:00 +5°C° 0.1 mm 7 mps 732 mmHg 80%
    06:00 +5°C° 0.1 mm 7 mps 732 mmHg 79%
    07:00 +5°C° 0 mm 7 mps 732 mmHg 78%
    08:00 +5°C° 0 mm 8 mps 733 mmHg 77%
    09:00 +6°C° 0 mm 8 mps 733 mmHg 76%
    10:00 +6°C° 0.1 mm 8 mps 734 mmHg 75%
    11:00 +6°C° 0.1 mm 8 mps 735 mmHg 75%
    12:00 +6°C° 0.1 mm 8 mps 736 mmHg 74%
    13:00 +6°C° 0.1 mm 8 mps 737 mmHg 75%
    14:00 +6°C° 0.1 mm 7 mps 737 mmHg 76%
    15:00 +6°C° 0.1 mm 7 mps 738 mmHg 77%
    16:00 +5°C° 0.1 mm 7 mps 739 mmHg 78%
    17:00 +5°C° 0.1 mm 6 mps 740 mmHg 79%
    18:00 +5°C° 0.1 mm 6 mps 741 mmHg 80%
    19:00 +5°C° 0.1 mm 6 mps 741 mmHg 81%
    20:00 +6°C° 0.1 mm 5 mps 742 mmHg 82%
    21:00 +5°C° 0.1 mm 5 mps 742 mmHg 83%
    22:00 +5°C° 0 mm 5 mps 743 mmHg 83%
    23:00 +5°C° 0 mm 5 mps 743 mmHg 84%

    27 September, Thursday

    Time Temperature Precipitation Wind Pressure Humidity
    00:00 +5°C° 0 mm 4 mps 744 mmHg 85%
    01:00 +5°C° 0 mm 4 mps 744 mmHg 86%
    02:00 +4°C° 0 mm 4 mps 745 mmHg 87%
    03:00 +4°C° 0 mm 4 mps 745 mmHg 88%
    04:00 +4°C° 0 mm 3 mps 746 mmHg 89%
    05:00 +4°C° 0 mm 3 mps 746 mmHg 91%
    06:00 +3°C° 0 mm 3 mps 746 mmHg 92%
    07:00 +4°C° 0 mm 3 mps 747 mmHg 89%
    08:00 +5°C° 0 mm 3 mps 747 mmHg 86%
    09:00 +5°C° 0 mm 3 mps 747 mmHg 83%
    10:00 +6°C° 0 mm 4 mps 747 mmHg 79%
    11:00 +7°C° 0 mm 4 mps 747 mmHg 75%
    12:00 +7°C° 0 mm 4 mps 747 mmHg 71%
    13:00 +7°C° 0.1 mm 4 mps 747 mmHg 70%
    14:00 +8°C° 0.1 mm 4 mps 747 mmHg 69%
    15:00 +8°C° 0.1 mm 4 mps 747 mmHg 68%
    16:00 +7°C° 0 mm 4 mps 747 mmHg 69%
    17:00 +6°C° 0 mm 4 mps 747 mmHg 70%
    18:00 +5°C° 0 mm 3 mps 747 mmHg 71%
    19:00 +5°C° 0 mm 4 mps 746 mmHg 69%
    20:00 +5°C° 0 mm 4 mps 746 mmHg 68%
    21:00 +4°C° 0 mm 4 mps 746 mmHg 66%
    22:00 +3°C° 0 mm 5 mps 745 mmHg 69%
    23:00 +5°C° 0 mm 5 mps 744 mmHg 72%
    Show more